{"data":{"norad_id":52636,"intl_designator":"2022-052AQ","name":"STARLINK-3967","alt_names":[],"object_type":"PAYLOAD","status":"ACTIVE","operator":null,"country":"US","launch_date":"2022-05-14","launch_site_code":"AFETR","launch_vehicle":null,"mission":null,"orbit_class":"UNKNOWN","rcs_meters":null,"size_class":null,"mass_kg":null,"dimensions":null,"purposes":["comms"],"wikipedia_slug":null,"has_3d_model":false,"image_url":null,"decayed_at":null,"tle_current":{"epoch":"2026-05-25T01:54:17.458272Z","epoch_age_seconds":78509,"freshness":"FRESH","line1":"1 52636U 22052AQ  26145.07936873 -.00000177  00000+0  69693-5 0  9997","line2":"2 52636  53.2146 286.1940 0001301  91.3117 268.8024 15.08835403222522","mean_motion":15.08835403,"eccentricity":0.0001301,"inclination_deg":53.2146,"raan_deg":286.194,"arg_perigee_deg":91.3117,"mean_anomaly_deg":268.8024,"bstar":6.9693e-6,"rev_number":22252,"period_min":95.437845449336,"perigee_km":538.85742212305,"apogee_km":540.65745825639,"semimajor_km":6917.8944401897,"source":"CELESTRAK","updated_at":"2026-05-25T13:38:17.205136Z"}}}